This demonstration page uses our WeatherBlox Daily Observations layout. Learn more.

Left ArrowRight Arrow

38.20091, -84.87328

Hourly Observations for April 13, 2022

Temp ( °F °C ) Dew Point ( °F °C ) Humidity (%) Winds ( mph kmh ) Pressure ( in mb ) Visibility ( mi km ) Precip ( " mm )
12:53 am 00:53 Clear 64 17.8 58 14.4 81 81 SSE 7 11 29.90 1013 10 16 0.00 0.00
1:53 am 01:53 Clear 65 18.3 58 14.4 78 78 SSE 9 15 29.87 1012 10 16 0.00 0.00
2:53 am 02:53 Clear 65 18.3 58 14.4 78 78 S 9 15 29.86 1011 10 16 0.00 0.00
3:53 am 03:53 Clear 65 18.3 57 13.9 76 76 S 10 17 29.83 1010 10 16 0.00 0.00
4:53 am 04:53 Clear 64 17.8 56 13.3 75 75 SE 6 9 29.83 1010 10 16 0.00 0.00
5:53 am 05:53 Clear 63 17.2 56 13.3 78 78 SE 6 9 29.84 1011 10 16 0.00 0.00
6:53 am 06:53 Clear 62 16.7 56 13.3 80 80 ESE 6 9 29.84 1011 10 16 0.00 0.00
7:53 am 07:53 Cloudy with Light Rain 62 16.7 57 13.9 84 84 ESE 6 9 29.84 1011 7 11 0.02 0.51
8:53 am 08:53 Cloudy 63 17.2 58 14.4 84 84 SE 6 9 29.86 1011 10 16 0.01 0.25
9:53 am 09:53 Cloudy 65 18.3 58 14.4 78 78 SSE 12 19 29.84 1010 10 16 0.01 0.25
10:53 am 10:53 Partly Cloudy 69 20.6 58 14.4 68 68 SSE 8 13 29.80 1009 10 16 0.00 0.00
11:53 am 11:53 Partly Cloudy 72 22.2 57 13.9 59 59 S 10 17 29.79 1009 10 16 0.00 0.00
12:53 pm 12:53 Partly Cloudy 76 24.4 55 12.8 48 48 SSW 23 37 29.77 1008 10 16 0.00 0.00
1:53 pm 13:53 Cloudy 73 22.8 54 12.2 51 51 SSW 18 30 29.75 1008 10 16 0.00 0.00
2:53 pm 14:53 Cloudy 68 20 58 14.4 70 70 SSW 17 28 29.79 1009 10 16 0.00 0.00
3:53 pm 15:53 Mostly Cloudy 68 20 60 15.6 76 76 SSW 8 13 29.77 1008 10 16 0.00 0.00
4:53 pm 16:53 Mostly Sunny 72 22.2 62 16.7 71 71 SSE 12 19 29.73 1007 10 16 0.00 0.00
5:53 pm 17:53 Sunny 72 22.2 61 16.1 68 68 S 8 13 29.72 1006 10 16 0.00 0.00
6:53 pm 18:53 Sunny 72 22.2 60 15.6 66 66 SSE 9 15 29.69 1005 10 16 0.00 0.00
7:53 pm 19:53 Sunny 70 21.1 60 15.6 71 71 SE 8 13 29.62 1003 10 16 0.00 0.00
8:53 pm 20:53 Mostly Cloudy 69 20.6 59 15 70 70 ESE 9 15 29.58 1002 10 16 0.00 0.00
9:06 pm 21:06 Cloudy with Light Rain 66 18.9 58 14.4 75 75 WSW 28 44 29.71 1006 2 2 0.11 2.79
9:18 pm 21:18 Cloudy with Rain 61 16.1 56 13.3 84 84 W 20 31 29.72 1007 3 5 0.20 5.08
9:34 pm 21:34 Cloudy with Thunderstorms 61 16.1 57 13.9 87 87 W 8 13 29.74 1007 6 10 0.24 6.10
9:49 pm 21:49 Cloudy with Rain 61 16 57 14 88 88 VRB 7 11 29.75 1008 5 8 0.27 6.86
9:53 pm 21:53 Cloudy with Rain 61 16.1 57 13.9 87 87 VRB 3 6 29.74 1007 4 6 0.28 7.11
10:53 pm 22:53 Cloudy with Light Rain 61 16.1 58 14.4 90 90 S 10 17 29.78 1009 10 16 0.07 1.78
11:53 pm 23:53 Cloudy with Light Rain 61 16.1 58 14.4 90 90 SSE 10 17 29.73 1007 10 16 0.03 0.76

Powered by AerisWeather